Theta_e
308 308 308 311 314 314 313 313 313 315 319 318 319 319 319 317 314 309 304 299 307 307 306 307 307 308 308 308 311 306 308 306 306 312 312 311 311 311 310 308 308 310 310 310 309 312 316 307 306 312 313 308 308 305
305 306 307 310 310 312 313 313 312 314 315 316 319 318 319 319 317 311 308 306 301 308 305 309 309 310 309 309 307 302 310 305 308 311 308 309 312 308 311 313 304 311 312 313 312 313 310 305 311 308 306 308 308 307
305 305 307 307 307 308 309 314 313 313 313 313 314 317 316 316 316 313 310 304 302 303 301 301 303 309 310 311 309 307 303 305 306 306 308 308 311 308 312 311 309 305 304 309 309 308 308 307 308 305 306 305 305 304
304 305 305 306 306 306 307 308 312 312 312 312 312 313 313 313 314 310 309 305 304 302 304 305 301 302 305 309 311 310 305 305 305 307 307 305 309 307 309 310 310 309 306 307 307 306 306 307 306 307 307 306 304 304
303 303 304 305 306 306 306 306 308 310 312 312 312 312 312 313 313 310 307 304 307 310 307 306 303 304 303 304 309 310 308 307 308 309 309 308 306 309 304 305 310 306 307 311 315 309 311 312 309 308 307 307 306 306
301 302 302 304 304 305 306 307 308 311 310 311 313 312 312 313 313 310 303 303 306 309 307 310 304 303 303 304 305 307 308 308 309 310 311 312 308 312 312 315 316 314 309 311 312 311 307 308 307 307 307 307 307 306
302 303 303 303 303 304 305 307 308 308 307 308 309 313 312 312 312 307 306 307 307 307 303 303 305 301 301 302 303 304 305 306 308 309 311 313 308 312 309 317 316 315 315 314 311 307 308 306 309 306 307 308 308 308
302 304 304 303 303 302 304 305 306 307 306 306 307 307 310 312 312 308 308 308 304 303 302 303 304 302 300 301 305 303 305 306 306 309 308 312 312 310 310 312 312 312 312 312 312 306 310 309 306 307 307 306 306 307
302 304 304 304 304 303 304 304 305 306 305 305 306 309 309 306 302 303 308 304 303 301 300 300 307 307 298 300 301 303 303 307 306 308 309 310 311 312 312 312 312 312 312 313 312 311 310 310 310 310 309 308 307 308
302 303 303 303 302 303 304 305 305 305 305 306 308 303 304 298 301 301 300 296 295 294 295 302 301 302 299 301 303 305 303 308 307 306 308 310 311 310 310 310 310 310 310 310 311 311 311 311 311 311 310 308 307 307
301 301 302 302 302 302 304 304 304 305 306 305 294 295 297 298 298 295 297 300 298 298 297 300 300 300 297 304 305 303 305 304 308 307 310 308 309 310 310 310 310 309 309 309 309 309 310 310 310 309 309 306 306 306
302 301 301 301 302 303 304 304 304 305 304 301 297 295 296 294 296 298 299 297 298 298 297 299 300 298 298 299 304 301 305 303 308 304 307 309 308 308 306 306 307 307 307 308 308 308 308 308 308 308 308 307 305 304
302 302 301 300 301 303 304 303 304 303 300 298 296 295 296 296 297 298 297 296 295 297 295 298 300 299 298 299 303 302 305 306 303 306 308 305 303 301 302 301 302 302 302 303 303 303 304 304 305 305 306 306 305 304
301 301 302 301 301 303 304 303 304 302 302 297 297 296 298 295 292 293 295 294 295 294 297 300 299 302 300 302 302 304 303 303 306 306 305 304 301 300 299 298 297 298 298 297 297 297 298 298 300 302 303 304 304 300
301 302 302 302 302 303 302 302 303 302 297 297 297 299 296 291 290 292 292 292 294 296 299 300 300 301 301 304 302 303 304 305 304 303 301 298 298 296 297 296 295 295 295 295 295 295 295 295 296 297 298 300 301 301
301 302 302 302 302 301 301 301 299 298 294 295 294 291 291 292 288 290 291 294 295 298 299 299 301 302 303 303 301 302 304 304 301 299 297 296 297 296 295 294 294 294 294 294 294 294 294 294 295 296 297 297 297 297
302 300 301 302 301 299 300 297 296 294 298 297 295 287 290 292 293 291 292 294 294 299 296 294 301 299 298 300 300 298 300 298 297 296 296 295 297 296 295 294 294 294 294 294 294 295 295 296 296 295 295 296 296 296
300 300 300 301 300 300 296 296 295 296 296 289 293 293 288 290 291 291 292 295 297 297 294 296 294 300 299 297 296 295 296 296 296 296 295 295 294 294 294 294 294 294 293 294 295 295 295 295 295 295 295 295 296 296
300 300 299 300 299 296 294 292 292 296 287 288 286 288 292 291 291 291 292 296 294 294 297 299 300 298 297 294 296 296 295 295 296 295 294 294 294 294 295 295 295 294 294 294 294 295 296 296 296 296 296 296 297 296
300 300 299 299 299 293 292 290 288 290 292 290 288 292 289 289 290 292 294 295 297 298 300 300 299 295 296 295 294 295 294 294 294 296 295 294 293 294 294 294 294 294 293 294 294 296 295 294 296 297 297 297 296 295
299 300 297 297 291 289 286 282 285 287 286 288 292 294 293 292 294 293 295 296 298 299 298 294 291 294 294 294 293 293 293 293 294 295 296 295 295 293 294 296 295 294 292 292 293 293 296 294 296 297 297 297 298 297
292 295 293 292 288 285 283 278 282 283 285 288 292 289 290 293 295 295 295 298 299 295 293 292 293 295 295 293 294 293 295 295 294 293 296 296 295 294 294 294 292 293 293 293 293 294 295 296 297 296 296 297 297 296
293 293 290 289 289 286 284 280 283 283 287 291 290 290 293 294 295 295 295 293 293 291 293 293 293 293 293 294 294 293 294 293 293 292 293 293 294 295 294 294 294 293 294 294 295 294 295 296 296 294 294 294 294 294
293 288 289 288 286 284 279 284 280 285 288 289 289 291 290 292 292 296 296 293 292 291 291 292 292 292 291 290 290 292 292 293 292 293 294 292 293 294 294 294 295 295 294 296 295 294 294 295 295 294 294 293 293 292
293 288 289 286 277 280 281 285 285 287 289 289 288 286 284 287 294 294 292 291 290 290 289 289 289 290 292 292 291 291 293 293 292 292 293 294 293 293 293 293 294 294 295 294 293 293 293 294 294 294 293 293 293 292
291 284 284 282 279 282 284 285 286 289 287 287 286 284 287 292 289 289 288 288 287 287 287 287 287 288 288 288 289 290 291 292 292 291 293 293 293 293 294 294 294 294 295 294 294 293 294 294 294 294 293 294 294 293
289 284 281 275 282 284 287 286 286 287 287 287 284 287 285 283 287 287 286 285 286 286 287 288 287 286 287 289 289 290 290 289 289 290 291 292 293 293 294 294 294 295 296 296 295 294 294 294 294 294 294 293 294 294
281 281 287 285 286 285 283 280 281 283 284 282 284 283 283 285 287 287 286 286 285 285 286 287 287 287 287 287 287 287 288 288 288 288 289 289 290 291 292 293 294 295 295 296 296 294 293 294 294 294 294 293 293 294
284 283 285 285 283 282 282 284 284 284 283 284 285 284 284 285 286 285 284 283 283 284 283 284 285 285 285 286 286 287 287 287 286 287 288 289 290 290 292 293 294 294 295 295 295 295 294 293 294 294 294 294 294 294
280 276 280 279 281 284 284 285 286 283 281 283 284 285 287 285 283 282 282 282 282 282 282 283 284 283 283 284 285 285 286 288 289 289 289 289 290 290 291 292 292 293 294 294 295 294 293 293 293 293 293 293 293 292
279 281 282 283 283 283 284 283 283 283 283 283 285 288 289 285 283 282 282 282 282 282 282 283 283 283 283 283 284 284 285 285 284 284 286 287 289 289 290 289 290 291 292 291 293 293 293 293 293 292 291 291 291 290
280 284 283 282 281 279 282 284 286 286 286 285 283 283 287 287 284 282 281 281 281 281 282 282 282 282 282 282 282 282 283 282 282 283 284 286 287 289 289 289 289 289 290 290 291 291 291 292 292 291 291 291 290 290
277 281 282 281 280 279 281 281 280 278 279 280 282 286 287 287 285 284 282 280 280 280 280 280 280 281 281 281 281 281 281 282 282 282 283 284 285 286 289 290 290 290 289 289 288 289 289 290 291 291 291 291 290 290
Wind_Speed
24 18 21 26 24 30 29 27 23 21 28 36 40 43 41 40 41 42 22 26 17 3 4 6 6 6 4 4 5 5 4 2 3 3 4 5 5 8 3 6 8 9 9 5 3 4 10 8 5 9 7 3 4 5
23 20 24 24 22 18 38 30 26 23 14 14 33 44 43 42 44 45 14 28 31 3 3 5 11 9 4 8 6 5 4 6 6 3 2 3 3 3 6 4 0 4 8 7 12 9 4 9 6 12 1 5 5 4
25 21 24 23 18 19 19 28 32 31 27 22 14 20 32 40 47 50 23 23 18 2 5 3 5 16 20 13 5 5 2 4 3 3 4 3 4 4 5 7 6 5 4 4 2 7 10 7 10 6 6 10 6 7
23 23 23 24 23 24 19 17 26 30 31 27 26 28 19 14 40 50 24 29 19 5 3 4 9 18 12 17 18 7 5 5 5 3 3 3 3 5 5 3 6 5 9 7 7 5 7 9 9 14 14 9 8 11
20 21 22 24 24 26 23 21 23 24 30 30 27 27 28 23 20 42 17 33 31 7 4 2 3 6 8 21 15 19 13 4 2 3 2 3 2 2 1 1 8 6 8 7 16 7 10 11 9 8 11 12 15 13
21 20 20 23 23 22 23 24 24 24 21 21 39 32 27 27 25 19 1 17 36 18 2 2 3 2 4 14 15 13 9 3 3 4 3 3 3 2 2 8 35 14 14 18 23 14 9 13 10 5 10 13 13 10
23 20 20 21 21 21 21 22 22 20 14 16 10 26 27 33 29 7 7 9 40 27 3 0 3 2 2 3 4 2 8 3 3 3 4 6 3 6 3 16 48 11 15 15 13 2 11 8 12 12 18 17 19 16
24 22 21 20 21 21 21 22 22 22 14 11 11 10 21 25 27 14 15 11 36 9 3 3 3 2 9 4 3 2 3 3 3 4 2 5 2 3 5 26 29 23 21 22 20 12 21 16 9 14 13 11 13 15
24 21 20 20 21 22 24 23 23 24 16 18 14 14 3 4 3 8 20 35 21 6 6 4 6 5 5 3 3 2 3 3 3 5 4 6 4 7 16 22 29 28 22 26 18 18 19 22 25 24 21 18 19 20
24 22 21 20 21 20 22 23 23 21 20 19 14 4 2 3 33 32 7 3 3 1 2 3 2 4 4 2 3 4 2 4 4 5 4 4 4 20 23 26 25 19 13 7 13 21 21 23 24 25 22 17 16 17
24 23 23 21 22 22 23 21 18 17 20 10 2 2 5 9 4 3 3 3 3 2 3 3 5 5 2 3 3 3 3 3 4 4 8 5 4 19 32 24 25 22 17 19 20 23 23 22 19 17 14 11 12 13
22 22 23 22 22 22 25 23 23 22 10 13 17 11 3 2 3 4 3 3 3 5 4 4 4 2 3 3 3 3 4 3 5 5 4 3 9 16 5 7 10 15 18 20 21 24 23 20 18 17 16 17 13 19
22 23 23 23 23 23 25 24 30 23 34 12 5 4 3 1 3 5 7 3 3 5 5 5 4 4 2 2 2 4 6 5 4 4 3 6 3 2 4 3 6 8 7 7 9 8 12 12 19 16 15 22 23 19
23 23 22 23 23 24 24 29 34 33 7 3 5 5 5 3 5 5 5 4 3 4 7 7 2 2 2 3 3 5 4 3 4 3 6 6 3 4 5 4 3 6 6 7 8 8 9 9 9 15 19 18 15 13
21 22 22 23 24 24 26 30 38 27 5 4 4 6 7 3 1 1 3 4 3 7 10 3 1 2 1 3 3 3 5 3 4 5 4 1 1 3 4 3 4 5 5 5 5 6 9 7 6 9 18 20 19 19
17 16 16 22 25 30 26 32 15 4 3 4 3 4 1 3 2 1 3 2 3 7 2 2 3 2 4 3 3 6 6 8 6 3 3 1 2 3 3 4 5 4 5 6 7 7 9 7 7 9 12 9 12 14
20 5 18 22 25 24 31 9 3 3 4 5 2 0 3 2 4 3 3 4 4 8 4 3 8 9 2 3 4 5 6 2 3 3 3 5 3 4 4 5 6 6 7 6 6 9 11 15 9 3 5 7 12 15
5 16 16 27 29 28 8 3 3 3 4 2 4 4 2 2 3 3 4 7 6 6 4 5 4 5 6 6 4 3 4 4 3 3 3 3 3 4 4 5 6 6 6 9 9 12 11 8 6 4 5 7 10 13
19 19 25 33 29 9 3 1 1 4 1 1 2 2 2 2 1 2 4 9 2 4 4 1 3 4 4 3 4 3 2 3 3 3 3 4 5 5 4 5 8 6 7 6 5 4 9 11 9 7 9 12 5 10
18 27 34 29 21 4 4 1 1 3 3 2 2 3 2 2 2 2 5 6 3 3 3 4 5 3 4 3 4 3 3 3 2 2 4 4 4 5 5 5 4 8 10 10 9 7 5 5 7 9 15 16 11 10
18 23 31 22 4 8 3 2 3 1 3 3 2 3 2 2 2 3 4 3 3 3 4 4 3 4 5 1 4 3 4 4 5 5 5 4 4 5 5 13 12 8 3 3 4 4 7 4 12 12 13 16 18 19
6 16 7 7 4 2 4 1 3 2 3 3 3 2 2 2 3 3 4 3 3 4 4 4 3 5 6 7 7 8 10 9 10 7 9 8 5 5 5 5 3 4 4 5 6 7 8 14 13 13 16 17 15 15
11 5 5 4 4 4 1 3 3 2 4 2 1 2 1 1 1 4 2 3 4 3 4 4 6 10 8 7 7 6 8 10 6 6 6 6 12 14 11 13 14 6 7 10 16 14 13 14 14 17 18 15 17 16
8 4 4 3 4 3 1 2 2 2 2 2 2 3 1 1 0 2 4 3 2 2 4 6 3 4 3 4 4 4 6 14 9 11 11 6 7 8 14 16 17 18 19 19 14 14 15 14 15 15 18 16 16 14
5 4 3 5 3 5 4 3 2 2 2 0 3 1 2 2 2 3 3 2 2 1 2 3 3 3 5 5 4 4 12 12 5 8 13 16 13 12 11 15 20 23 21 14 11 12 12 13 15 16 18 17 16 16
5 2 2 4 1 4 5 5 6 4 4 3 1 1 1 2 2 6 3 2 1 0 0 1 1 2 3 4 4 4 6 9 11 6 16 17 16 10 9 9 8 8 16 22 14 14 14 15 16 17 17 20 20 18
4 2 1 1 3 3 3 3 2 2 4 5 4 4 3 4 6 4 1 1 1 2 8 9 6 3 4 6 13 15 19 20 17 17 24 24 23 23 21 12 11 16 17 18 22 22 19 19 19 22 21 18 20 22
2 3 5 2 2 1 4 3 4 5 4 3 5 5 9 8 3 2 2 4 11 14 14 14 12 11 13 16 18 19 19 19 22 24 25 28 29 29 30 28 27 27 24 21 20 21 22 22 22 23 22 20 20 25
2 1 3 3 3 2 1 3 4 2 3 3 4 3 3 1 2 3 4 12 12 9 6 6 10 15 16 14 14 15 16 15 7 12 14 10 9 10 17 21 25 27 26 23 20 19 21 22 23 23 25 25 26 27
1 1 3 2 3 2 2 3 2 2 2 3 2 1 2 2 2 7 9 10 8 6 8 10 10 10 7 7 7 15 17 13 10 8 8 9 10 19 23 21 21 22 21 24 19 16 15 14 16 19 18 18 18 20
1 1 2 2 2 1 0 0 1 1 1 1 1 2 2 3 4 7 14 11 9 7 6 6 8 10 11 11 7 8 8 13 21 23 23 24 23 20 17 17 16 13 13 18 17 16 16 16 17 15 16 16 18 18
3 2 2 2 1 3 1 1 1 1 1 1 0 1 1 2 2 1 11 12 11 8 11 11 9 10 12 10 12 12 12 16 20 23 24 25 26 25 14 9 9 6 6 8 9 13 16 17 15 16 15 17 18 21
2 2 3 2 3 3 3 2 3 2 3 1 1 1 2 2 2 1 2 10 9 9 11 13 14 13 12 10 11 15 17 20 20 21 24 26 28 30 11 7 8 7 6 5 4 3 6 11 13 14 16 16 18 20
Wind_Direction
230 223 234 233 226 212 219 222 222 227 225 222 220 217 215 210 206 201 212 210 198 187 263 192 192 143 128 151 151 171 86 327 54 160 157 198 196 214 168 176 174 167 165 194 150 198 275 166 85 181 212 214 206 209
234 227 224 225 224 227 205 208 221 224 214 212 218 218 223 218 212 201 208 209 204 191 253 237 240 235 200 189 142 189 180 163 171 122 215 147 193 150 175 227 159 231 193 188 187 205 247 204 204 225 138 209 223 214
227 227 228 227 227 230 226 207 215 218 222 227 222 208 209 218 220 205 198 176 175 132 300 238 219 235 235 221 192 138 263 179 192 180 158 180 217 135 177 230 206 245 171 216 154 202 228 220 254 250 237 236 238 233
220 216 226 229 225 230 231 233 233 224 230 224 226 224 231 229 214 198 187 180 169 98 196 267 237 236 231 225 228 222 138 113 96 102 150 167 175 186 206 217 211 182 144 194 257 267 295 257 234 247 257 249 248 246
224 222 220 225 223 222 222 231 237 237 225 232 227 227 222 223 217 198 198 188 184 166 184 234 292 250 229 218 209 202 176 138 143 144 165 221 174 149 193 26 245 179 181 207 249 192 219 250 237 234 239 243 247 250
224 221 220 224 221 219 217 225 220 224 225 229 222 216 210 208 185 172 90 203 196 195 109 205 341 273 203 203 203 198 190 156 152 152 212 253 156 35 246 257 261 232 215 230 256 247 220 243 249 211 240 245 246 228
214 215 220 224 223 221 219 212 214 216 223 221 210 214 213 207 191 171 180 199 197 187 114 75 265 221 197 149 169 151 191 177 159 185 220 229 210 187 199 245 262 231 258 252 253 293 265 235 251 225 239 251 256 254
212 208 211 216 221 218 220 217 213 213 213 227 218 241 232 219 199 192 177 159 164 132 116 188 213 275 175 158 192 165 154 150 204 192 189 208 176 191 243 244 262 257 260 266 262 234 254 273 262 255 255 264 259 259
214 212 211 211 214 216 215 215 213 207 201 224 224 228 229 185 139 151 170 152 156 138 174 181 175 207 158 138 132 132 172 173 173 204 193 157 181 219 232 246 250 253 243 254 255 252 254 257 261 261 260 258 256 261
210 213 217 218 219 218 213 211 210 205 204 197 185 108 109 13 123 110 68 43 40 45 93 191 141 168 138 165 167 134 186 195 192 209 158 210 241 248 246 241 247 253 252 264 256 256 251 254 255 263 264 260 257 266
208 214 216 216 217 219 213 209 202 177 172 162 80 88 129 132 80 61 134 156 152 158 184 223 197 141 217 142 159 204 172 188 204 197 191 192 244 243 243 246 250 261 253 244 242 255 258 260 268 271 268 253 251 255
204 210 215 216 215 214 207 198 177 163 159 146 115 98 123 45 65 113 135 122 186 205 190 176 188 154 166 151 137 168 193 181 227 151 187 211 246 265 279 238 240 242 241 243 242 249 256 259 261 265 269 272 256 248
200 208 215 216 214 211 202 188 176 165 133 115 84 127 161 114 145 174 173 204 189 184 184 177 156 143 124 197 148 160 188 210 137 193 216 235 231 285 267 242 243 250 274 284 282 275 270 266 265 257 260 260 255 252
206 209 212 211 207 200 190 174 172 158 138 100 145 154 194 183 229 191 184 161 199 113 146 153 121 152 141 166 165 179 186 145 197 213 230 244 195 256 282 284 269 268 277 287 279 275 264 254 265 268 261 259 252 233
207 208 205 199 192 185 174 179 175 161 128 150 138 189 199 224 343 110 157 126 152 150 141 108 57 107 161 181 187 156 167 212 207 224 227 236 195 266 265 258 262 293 301 292 291 285 282 275 262 275 277 275 259 243
202 193 188 187 180 170 166 177 167 133 81 137 159 109 101 87 284 227 177 128 122 138 99 86 153 188 211 180 158 204 176 214 228 209 221 251 299 289 271 287 286 278 276 280 283 281 283 281 275 272 286 260 240 213
170 170 180 181 174 168 168 130 126 141 162 167 192 156 142 140 176 156 139 140 155 155 187 173 174 203 126 187 218 191 212 223 194 210 216 209 228 287 305 292 292 292 292 286 286 294 284 291 294 273 260 248 209 192
158 173 175 176 164 150 128 123 131 142 161 160 154 176 170 127 136 152 164 158 158 179 145 208 145 188 204 196 224 229 208 227 222 227 236 239 237 248 231 263 293 300 289 287 279 278 279 274 265 247 249 208 171 157
172 170 171 161 150 116 125 103 262 126 162 146 116 98 136 140 228 145 154 172 141 127 128 151 198 213 218 212 219 223 224 201 217 221 232 240 229 234 264 275 277 272 274 267 266 259 267 270 257 234 186 177 182 156
173 169 168 162 146 106 102 80 63 107 153 160 109 159 149 161 147 173 152 157 124 110 198 221 221 218 200 210 205 211 209 197 176 274 274 263 228 233 259 257 269 298 300 295 280 274 284 283 255 218 190 178 166 177
170 151 141 145 84 66 92 105 52 82 142 99 142 150 118 144 141 154 153 141 190 212 219 210 206 240 227 229 222 217 230 190 211 204 222 252 256 222 272 295 290 288 260 285 286 277 240 230 248 219 202 197 197 194
119 132 100 68 82 62 81 359 123 171 93 158 142 142 138 154 146 150 127 198 224 222 189 178 199 222 242 243 245 215 244 252 255 252 260 265 269 272 270 256 246 261 256 250 243 249 242 242 239 221 211 208 199 194
112 78 73 85 84 59 331 355 82 12 107 151 131 84 56 98 110 135 210 222 244 222 196 199 214 219 232 258 247 247 244 243 252 246 247 246 255 258 262 267 252 242 269 268 263 247 244 247 223 208 206 199 191 185
90 59 58 79 91 129 19 47 45 72 88 135 119 114 154 102 24 228 248 239 239 240 203 220 213 269 274 237 239 248 231 243 259 271 265 258 269 269 253 257 260 252 246 256 255 246 236 215 202 192 198 192 188 184
75 7 68 69 23 86 85 106 110 109 116 67 119 120 224 185 203 235 243 276 234 278 314 293 281 256 259 280 293 284 284 254 250 268 274 255 259 272 268 262 258 258 262 239 235 223 221 195 191 196 197 194 191 189
80 16 105 154 175 131 171 133 178 154 130 145 149 150 177 153 163 244 239 225 289 295 53 43 293 293 273 224 268 287 290 306 284 262 275 268 248 246 262 269 272 271 263 237 228 215 209 192 190 203 211 205 199 187
129 212 24 225 116 137 104 77 68 112 146 162 171 154 124 177 226 248 251 77 330 316 319 322 310 272 276 299 301 297 298 298 280 271 280 280 273 262 252 253 257 263 270 247 232 217 209 199 196 205 213 205 201 197
157 168 127 175 89 58 128 123 159 176 164 165 126 178 177 194 235 356 19 360 336 331 331 331 326 316 306 298 298 299 299 300 300 296 290 282 277 268 263 259 260 264 263 260 255 241 220 213 207 204 200 203 205 208
72 19 88 61 41 33 146 156 201 210 154 146 161 187 225 157 34 353 339 344 345 344 338 336 335 334 329 325 319 322 321 316 311 302 294 289 294 285 273 268 265 262 260 255 248 246 238 221 213 210 209 207 214 218
288 137 90 89 115 199 244 170 177 161 174 176 159 97 110 106 51 39 17 8 5 354 328 321 327 341 336 337 330 335 341 320 342 324 311 301 295 304 308 307 293 275 263 247 237 234 224 223 223 215 209 205 202 206
248 106 81 90 160 253 216 190 40 59 91 165 218 172 173 133 172 54 26 9 359 347 350 357 6 13 9 2 357 338 334 347 341 338 335 332 321 312 305 314 316 293 274 250 227 219 203 191 202 201 200 201 207 206
16 46 114 84 315 288 344 70 102 119 151 125 357 89 137 111 99 61 7 14 22 19 0 356 351 345 350 356 345 344 336 342 345 342 343 346 342 334 311 315 319 314 293 263 236 225 215 205 197 205 210 212 214 217
13 14 36 58 23 19 352 61 28 14 22 44 25 28 46 82 108 112 80 36 27 4 344 333 327 323 329 326 341 349 349 350 351 347 349 352 355 358 344 356 15 16 21 23 4 294 256 244 228 221 220 218 221 224